Champaign, IL

5:39 PM CDT on July 23, 2019 (GMT -0500)
Univ Of Illinois-Willard

Weather History for KCMI - May, 2019

Change the Weather History Date:

Friday, May 10, 2019

  Actual Average Record
Temperature  
Mean Temperature 54 °F 61 °F  
Max Temperature 61 °F 73 °F 92 °F (2011)
Min Temperature 46 °F 49 °F 34 °F (1997)
Degree Days  
Heating Degree Days 11 6  
Month to date heating degree days 58 68  
Since 1 July heating degree days 5821 5732  
Cooling Degree Days 0 2  
Month to date cooling degree days 4 12  
Year to date cooling degree days 7 23  
Growing Degree Days 3 (Base 50)    
Moisture  
Dew Point 42 °F    
Average Humidity 69    
Maximum Humidity 86    
Minimum Humidity 51    
Precipitation  
Precipitation 0.00 in 0.15 in 1.12 in (1951)
Month to date precipitation 1.84 1.58  
Year to date precipitation 13.98 12.19  
Sea Level Pressure  
Sea Level Pressure 30.12 in    
Wind  
Wind Speed 9 mph (NNW)    
Max Wind Speed 17 mph    
Max Gust Speed 23 mph    
Visibility 10 miles    
Events      
T = Trace of Precipitation, MM = Missing Value Source: NWS Daily Summary

Daily Weather History Graph

Daily Weather History Graph

Search for Another Location

Airport or City:

Astronomy

May. 10, 2019 Rise Set
Actual Time 5:42 AM CDT 7:56 PM CDT
Civil Twilight 5:12 AM CDT 8:26 PM CDT
Nautical Twilight 4:35 AM CDT 9:04 PM CDT
Astronomical Twilight 3:55 AM CDT 9:45 PM CDT
Moon 10:42 AM CDT (5/10) 12:49 AM CDT (5/10)
Length of Visible Light 15h 14m
Length of Day
14h 13m
Waxing Crescent, 35% of the Moon is Illuminated
May 10
Waxing Crescent
May 11
First Quarter
May 18
Full
May 26
Last Quarter
Jun 3
New

Hourly Weather History & Observations

Time (CDT) Temp. Windchill Dew Point Humidity Pressure Visibility Wind Dir Wind Speed Gust Speed Precip Events Conditions
12:53 AM 46.9 °F - 42.1 °F 83% 30.00 in 10.0 mi WNW 13.8 mph - N/A   Overcast
1:53 AM 46.9 °F - 42.1 °F 83% 30.01 in 10.0 mi WNW 12.7 mph - N/A   Overcast
2:53 AM 46.9 °F - 43.0 °F 86% 30.02 in 10.0 mi West 12.7 mph - N/A   Overcast
3:53 AM 46.9 °F - 41.0 °F 80% 30.03 in 10.0 mi WNW 11.5 mph - N/A   Overcast
4:53 AM 46.9 °F - 42.1 °F 83% 30.07 in 10.0 mi West 10.4 mph - N/A   Overcast
5:53 AM 46.0 °F 40.2 °F 41.0 °F 83% 30.06 in 10.0 mi NW 12.7 mph - N/A   Overcast
6:53 AM 46.0 °F 41.0 °F 42.1 °F 86% 30.10 in 10.0 mi NW 10.4 mph - N/A   Overcast
7:53 AM 46.9 °F - 42.1 °F 83% 30.12 in 10.0 mi NW 10.4 mph - N/A   Overcast
8:53 AM 48.0 °F - 39.9 °F 74% 30.14 in 10.0 mi NNW 11.5 mph - N/A   Overcast
9:53 AM 48.9 °F - 39.9 °F 71% 30.15 in 10.0 mi NNW 10.4 mph - N/A   Overcast
10:53 AM 50.0 °F - 39.9 °F 68% 30.17 in 10.0 mi NNW 8.1 mph - N/A   Overcast
11:53 AM 53.1 °F - 42.1 °F 66% 30.16 in 10.0 mi WNW 10.4 mph - N/A   Mostly Cloudy
12:53 PM 55.9 °F - 42.1 °F 60% 30.15 in 10.0 mi North 12.7 mph - N/A   Mostly Cloudy
1:53 PM 57.0 °F - 43.0 °F 59% 30.17 in 10.0 mi North 8.1 mph - N/A   Overcast
2:53 PM 57.9 °F - 42.1 °F 56% 30.17 in 10.0 mi NNW 9.2 mph - N/A   Overcast
3:53 PM 57.0 °F - 42.1 °F 57% 30.15 in 10.0 mi NNW 10.4 mph - N/A   Overcast
4:53 PM 57.9 °F - 42.1 °F 56% 30.16 in 10.0 mi North 11.5 mph - N/A   Mostly Cloudy
5:53 PM 60.1 °F - 42.1 °F 51% 30.15 in 10.0 mi North 9.2 mph - N/A   Overcast
6:53 PM 57.9 °F - 41.0 °F 53% 30.14 in 10.0 mi NNE 8.1 mph - N/A   Mostly Cloudy
7:53 PM 52.0 °F - 43.0 °F 71% 30.14 in 10.0 mi NE 5.8 mph - N/A   Clear
8:53 PM 51.1 °F - 41.0 °F 68% 30.17 in 10.0 mi NE 4.6 mph - N/A   Clear
9:53 PM 50.0 °F - 42.1 °F 74% 30.17 in 10.0 mi Calm Calm - N/A   Clear
10:53 PM 50.0 °F - 42.1 °F 74% 30.17 in 10.0 mi ENE 3.5 mph - N/A   Clear
11:53 PM 46.9 °F - 41.0 °F 80% 30.14 in 10.0 mi NE 6.9 mph - N/A   Clear